Regional Weather Roundup
Issued by NWS Charleston, WV

Home | Current Version | Previous Version | Text Only | Print | Product List | Glossary On
Versions: 1 2 3 4 5 6 7 8 9 10 11 12 13 14 15 16 17 18 19 20 21 22 23 24 25 26 27 28 29 30 31 32 33 34 35 36 37 38 39 40 41 42 43 44 45 46 47 48 49 50
000
ASUS41 KRLX 060810
RWRRLX
West Virginia Regional Weather Roundup
National Weather Service Charleston WV
400 AM EDT WED MAY 06 2015

Note: "fair" indicates few or no clouds below 12,000 feet with no
significant weather and/or obstructions to visibility.

WVZ003-060900-
Northern Panhandle of West Virginia

CITY           SKY/WX    TMP DP  RH WIND       PRES   REMARKS
WHEELING       PTCLDY    60  58  92 CALM      30.21S FOG
$$

WVZ009-060900-
Northwest West Virginia

CITY           SKY/WX    TMP DP  RH WIND       PRES   REMARKS
PARKERSBURG    CLEAR     57  55  93 CALM      30.23R FOG
$$

WVZ006-060900-
Western West Virginia

CITY           SKY/WX    TMP DP  RH WIND       PRES   REMARKS
HUNTINGTON     MOCLDY    58  56  93 CALM      30.20F
$$

WVZ015-060900-
West Central West Virginia

CITY           SKY/WX    TMP DP  RH WIND       PRES   REMARKS
CHARLESTON     CLEAR     57  55  93 CALM      30.21S
$$

WVZ022-031-060900-
North Central West Virginia

CITY           SKY/WX    TMP DP  RH WIND       PRES   REMARKS
CLARKSBURG     CLEAR     57  56  96 CALM      30.22S FOG
MORGANTOWN     MOCLDY    59  55  87 CALM      30.22F FOG
$$

WVZ025-035-042-045-060900-
Southern West Virginia

CITY           SKY/WX    TMP DP  RH WIND       PRES   REMARKS
BECKLEY        PTCLDY    59  51  75 CALM      30.27F
LOGAN            N/A     63  55  77 CALM      30.21S
BLUEFIELD      CLOUDY    64  49  57 W3        30.30S
LEWISBURG      MOCLDY    56  53  89 CALM      30.27F
$$

WVZ047-060900-
Northern Mountains of West Virginia

CITY           SKY/WX    TMP DP  RH WIND       PRES   REMARKS
ELKINS         FOG       50  48  93 CALM      30.28S VSB 1/2
$$

WVZ052-060900-
Eastern Panhandle of West Virginia

CITY           SKY/WX    TMP DP  RH WIND       PRES   REMARKS
MARTINSBURG    CLEAR     58  56  93 CALM      30.21S FOG
PETERSBURG     FOG       56  53  90 CALM      30.25R VSB<1/4
$$


USA.gov is the U.S. government's official web portal to all federal, state and local government web resources and services.